EDT,Max TemperatureF,Mean TemperatureF,Min TemperatureF,Max Dew PointF,MeanDew PointF,Min DewpointF,Max Humidity, Mean Humidity, Min Humidity, Max Sea Level PressureIn, Mean Sea Level PressureIn, Min Sea Level PressureIn, Max VisibilityMiles, Mean VisibilityMiles, Min VisibilityMiles, Max Wind SpeedMPH, Mean Wind SpeedMPH, Max Gust SpeedMPH,PrecipitationIn, CloudCover, Events, WindDirDegrees
2013-7-1,73,70,68,73,70,68,100,99,93,30.09,30.01,29.95,8,3,0,12,7,,0.17,8,Fog-Rain,174
2013-7-2,77,73,69,74,71,69,100,97,89,30.20,30.15,30.10,7,5,4,10,7,,0.00,7,Rain,185
2013-7-3,81,74,68,75,72,68,100,96,84,30.25,30.22,30.19,9,6,4,14,6,,0.00,2,,218
2013-7-4,84,78,73,77,74,72,100,92,76,30.25,30.21,30.16,8,6,4,13,7,22,0.00,3,,234
2013-7-5,87,80,73,77,74,72,97,88,69,30.19,30.15,30.10,8,7,6,14,9,18,0.00,0,,232
2013-7-6,88,82,75,77,75,72,91,82,65,30.11,30.06,30.00,9,8,7,14,8,20,0.00,0,,249
2013-7-7,89,80,73,78,75,73,100,88,67,30.03,29.99,29.94,9,7,4,12,4,,0.00,0,,217
2013-7-8,87,79,71,74,72,69,100,84,61,30.03,29.98,29.94,10,8,6,15,7,21,0.00,0,,232
2013-7-9,79,74,70,73,72,70,100,97,84,30.08,30.05,30.01,9,4,0,12,4,84,0.00,5,Fog-Rain,101
2013-7-10,79,74,71,75,73,72,100,98,87,30.04,29.95,29.82,7,3,0,15,5,23,0.02,7,Fog-Rain,154
2013-7-11,77,72,69,75,73,69,100,99,91,29.91,29.85,29.80,10,5,2,25,3,34,0.13,3,Rain,208
2013-7-12,81,74,68,71,68,63,93,82,71,30.15,30.04,29.91,10,9,4,16,10,21,0.00,6,Rain,42
2013-7-13,77,72,68,76,71,66,100,99,93,30.30,30.25,30.15,9,4,0,12,8,,0.07,8,Fog-Rain,87
2013-7-14,86,78,71,79,74,71,100,95,72,30.31,30.27,30.22,9,4,0,13,4,,0.13,6,Fog-Rain,255
2013-7-15,93,81,71,78,74,71,100,86,50,30.21,30.17,30.11,10,6,0,13,2,,0.00,1,Fog,312
2013-7-16,95,85,75,74,70,67,91,65,42,30.15,30.12,30.10,10,9,8,12,6,18,0.00,0,,4
2013-7-17,84,78,73,71,69,66,87,73,55,30.18,30.13,30.06,8,7,4,10,5,,0.00,0,,167
2013-7-18,93,82,73,74,71,69,87,71,48,30.05,29.99,29.96,7,6,4,12,5,,0.00,0,,217
2013-7-19,93,81,71,75,71,68,94,80,50,29.95,29.89,29.78,6,3,0,16,4,22,0.00,1,Fog,218
2013-7-20,89,81,75,73,71,68,89,74,55,29.83,29.76,29.69,9,5,2,14,7,22,0.00,0,,225
2013-7-21,81,75,71,67,63,59,84,67,50,29.98,29.92,29.83,10,9,7,9,4,,0.00,3,,108
2013-7-22,81,76,71,70,67,65,94,79,61,29.98,29.92,29.85,8,5,1,14,7,,0.00,6,Rain,90
2013-7-23,84,76,71,73,71,69,96,88,70,29.85,29.68,29.57,9,3,0,14,10,,0.04,6,Fog-Rain,151
2013-7-24,84,76,71,74,70,59,100,84,60,29.90,29.68,29.59,10,6,0,15,3,17,0.03,4,Fog,301
2013-7-25,71,66,61,61,57,52,94,80,64,30.04,30.01,29.91,10,9,6,14,12,21,0.00,8,Rain,15
2013-7-26,73,67,61,67,63,59,96,87,73,30.04,29.98,29.94,10,8,5,17,11,26,0.09,6,Rain,339
2013-7-27,78,72,66,70,68,66,100,90,74,30.07,30.04,29.99,8,6,2,12,5,,0.00,3,Rain,199
2013-7-28,79,74,69,70,69,67,97,89,74,30.00,29.98,29.95,8,7,4,12,6,,0.00,5,,36
2013-7-29,81,75,69,75,71,65,100,92,77,30.05,30.00,29.96,10,6,1,8,4,,0.03,5,Rain,151
2013-7-30,82,72,63,64,59,56,87,64,44,30.12,30.09,30.05,10,10,10,16,8,20,0.00,1,,310
2013-7-31,79,70,62,65,61,56,93,74,46,30.14,30.10,30.06,10,10,10,10,4,,0.00,0,,245